COSMOS 2251 DEB

Satellite information

Favourite Embed

Satellite Type and Status

DEBRISIN ORBIT

Key statistics

Satellite COSMOS 2251 DEB at a glance.

Uptime

11869

Days in orbit

Revolutions

≈ 14.4

Per day

Orbit

LEO

Low Earth Orbit

Inclination

74.0

Latest

Satellite identification and parameters

Extended collection of information and parameters for COSMOS 2251 DEB.

Object identification

Identified? True

Debris? True

Object name: COSMOS 2251 DEB

International designator: 1993-036ANN

Object number (NORAD): 35647

Object ID (CCSDS): 35647

Country: COMMONWEALTH OF INDEPENDENT STATES (CIS)

Current information (Y/N): Y

RCS size: SMALL

Orbital parameters

Period: 99.749 minutes

Inclination: 74.0232 deg

SMA: 7124.669 km

Apoapsis: 778.941 km

Periapsis: 714.126 km

RAAN: 295.5523 deg

Eccentricy: 0.00454864

Argument of periapsis: 34.8283 deg

Mean anomaly: 325.5835 deg

Mean motion: 14.43629477 rev/day

Mean motion (dot): 0.00004615 rev/day2

B* drag term: 0.0013504797 1/REarth

Two-line elements (TLE)

Creation date: Dec. 12, 2025, 10:14 a.m.

Reference frame: TEME

Reference center: EARTH

Epoch: Dec. 12, 2025, 5 a.m. UTC

TLE line 0: 0 COSMOS 2251 DEB

TLE line 1: 1 35647U 93036ANN 25346.20893747 .00004615 00000-0 13505-2 0 9998

TLE line 2: 2 35647 74.0232 295.5523 0045486 34.8283 325.5835 14.43629477676569

Live tracking on map

Real-time ground track for satellite COSMOS 2251 DEB.

In-orbit conjunctions

A list of the most updated potential collisions computed for object COSMOS 2251 DEB.

Target Orbit TCA Probability of collision Miss distance Type
CZ-6A DEB LEO 2025-07-07 12:19:39 0.0001493826 324.0 (m) DEBRIS
OSCAR 17 (DOVE) SSO 2025-05-04 11:20:22 0.001048368 182.0 (m) PAYLOAD
CZ-6A DEB LEO 2025-01-31 11:36:47 0.0001769263 412.0 (m) DEBRIS
IRIDIUM 33 DEB LEO 2024-06-16 05:01:46 0.0001075252 300.0 (m) DEBRIS

Associated space launch

Military communications satellite. Destroyed in a collision with Iridium 33.

COSMOS 2251 DEB was lifted into orbit during the mission ‘Kosmos-3M | Strela-2M 51’, on board a Kosmos-3M space rocket.

The launch took place on June 16, 1993, 4:17 a.m. from 132/1 (132L).

For more information about the launch, click the button.

Launch to space Kosmos-3M | Strela-2M 51
Kosmos-3M | Strela-2M 51

Agency: N/A

Status: Launch Successful

Launch date: June 16, 1993, 4:17 a.m. UTC

Rocket: Kosmos-3M

Launch pad: 132/1 (132L)

Location: Plesetsk Cosmodrome, Russian Federation

...

Latest news about this satellite

There are no fresh news available about this satellite. Check back as we update our databases every day.


Newsletter sign-up

Weekly statistics, charts and insights to help you stay on top of the space industry.